Theta_e
314 314 314 314 314 314 314 314 314 314 314 314 314 314 314 314 313 313 313 312 312 312 312 312 312 312 312 312 311 311 311 311 311 311 311 311 311 311 310 310 310 311 311 311 311 310 310 310 310 310 310 309 309 309 309 309 309 309 308 308 307 307 305 305 304 306 309 309 307 307 308 307 306 307 306 306 306 306 306 306 307 308 308 309 309
314 314 314 314 314 314 314 314 314 314 314 314 314 313 313 313 312 312 312 312 312 312 311 311 311 311 311 311 311 311 311 311 311 311 311 311 311 311 310 310 310 310 310 310 310 310 309 309 309 309 309 308 308 308 308 309 308 308 308 307 306 306 305 305 304 304 307 309 308 306 306 306 305 306 306 305 305 305 306 306 307 307 308 308 308
314 314 314 314 314 314 314 314 314 313 313 313 313 312 312 312 312 312 312 312 311 311 311 311 311 311 310 310 310 310 309 309 309 308 308 308 308 308 307 307 307 307 307 306 306 306 305 305 305 305 305 305 305 305 306 306 306 307 307 307 306 306 305 304 304 304 304 307 308 306 305 305 305 305 305 305 305 305 305 306 306 306 306 306 306
314 314 314 314 314 314 314 313 313 313 313 312 312 312 311 311 311 311 311 311 310 310 309 308 308 307 307 306 306 305 305 304 304 304 304 304 303 303 303 303 303 303 303 303 303 302 302 302 302 302 302 302 302 302 302 303 303 304 304 305 306 306 306 304 303 304 303 305 308 307 305 304 305 305 304 304 304 304 304 304 304 304 304 305 305
313 313 314 314 314 313 313 313 312 312 312 311 311 311 311 310 310 310 309 308 308 306 305 305 304 303 303 303 303 303 302 302 302 302 302 302 302 302 302 301 301 301 301 301 301 301 301 301 300 300 300 300 300 300 300 300 300 300 301 301 302 304 305 304 303 303 302 302 305 307 306 304 304 305 304 303 303 303 303 303 303 303 303 304 304
313 313 313 313 313 313 312 312 311 311 310 310 310 309 309 308 308 307 306 306 305 303 303 303 303 303 303 303 302 302 302 302 301 301 301 301 301 301 300 300 300 300 300 300 300 299 299 299 299 299 298 298 298 298 298 297 297 297 298 298 298 300 302 303 303 302 302 302 302 304 305 304 304 304 303 303 302 302 302 302 302 302 302 303 303
313 313 312 313 312 312 311 311 310 310 309 308 308 307 307 306 306 305 304 303 303 302 303 303 303 303 303 302 301 301 300 300 300 299 299 299 299 298 298 298 298 298 298 297 297 297 297 297 297 297 297 296 296 296 296 296 296 296 296 296 297 298 299 300 302 301 301 302 301 302 303 304 303 303 303 302 301 302 302 301 301 302 302 302 302
312 312 312 312 311 310 310 309 308 308 307 306 306 306 305 304 304 303 302 302 302 303 303 303 303 303 302 300 299 298 298 298 297 297 297 297 296 296 296 296 296 296 296 296 296 296 296 296 296 296 295 295 295 295 295 295 295 295 295 295 296 296 297 299 300 301 300 301 301 301 301 302 302 302 301 301 301 301 301 301 301 301 301 301 301
311 311 310 310 309 308 307 307 306 305 305 304 304 303 303 302 302 302 302 302 303 303 302 302 301 300 299 298 297 297 297 296 296 296 296 295 296 295 295 295 295 295 295 295 295 295 295 295 295 295 295 295 295 294 294 294 294 294 295 295 295 295 296 297 299 299 299 300 300 300 300 301 301 301 301 301 301 301 301 301 300 300 300 300 300
310 309 308 307 306 305 305 304 303 303 302 302 301 301 301 301 302 302 302 302 301 301 300 299 298 297 297 296 296 296 296 296 296 295 295 295 295 295 295 295 295 295 295 295 295 295 295 295 295 295 295 295 295 294 294 294 294 294 294 294 294 295 295 296 297 298 298 299 299 299 299 300 300 300 300 301 301 301 301 300 300 300 299 299 299
307 306 305 304 303 302 302 301 301 301 301 301 301 301 302 302 301 301 300 300 299 298 297 297 296 296 296 296 296 296 296 295 295 295 295 295 294 294 295 294 294 294 294 295 295 295 295 295 295 295 294 294 294 294 294 294 293 294 294 294 294 294 295 295 296 296 298 298 298 298 298 299 299 299 300 300 300 300 300 300 300 300 299 298 298
304 303 301 301 300 300 300 300 300 301 301 301 301 301 301 300 299 298 298 297 297 296 296 296 296 296 296 295 295 295 295 295 295 295 295 295 294 294 294 294 294 294 294 294 294 294 294 294 294 294 293 293 293 293 293 293 293 293 293 293 294 294 294 295 295 295 297 297 297 297 298 298 298 299 299 299 299 300 300 300 299 299 299 298 298
300 300 299 299 299 300 300 300 300 301 301 300 300 299 298 298 297 297 296 296 296 296 295 295 295 295 295 295 295 295 295 295 294 295 294 294 294 294 294 294 294 294 294 293 293 294 293 293 293 293 293 293 292 292 292 292 292 293 293 293 294 294 294 294 295 295 296 296 296 297 298 298 298 298 298 298 299 299 299 299 299 299 298 298 298
299 299 299 299 300 300 300 300 300 300 299 299 298 297 297 296 296 296 296 296 295 295 295 295 295 295 295 295 295 294 294 294 294 294 294 294 293 293 293 293 293 293 293 293 293 293 293 292 292 292 292 292 292 292 292 292 292 292 293 293 294 294 294 294 295 295 295 295 295 296 296 296 297 297 298 297 298 298 298 298 299 299 298 298 298
299 299 299 299 300 299 299 299 299 298 298 297 297 296 296 296 296 296 295 295 295 295 295 295 295 295 294 294 294 294 294 293 293 293 293 293 293 293 292 292 292 292 292 292 292 292 292 292 291 291 292 292 291 291 291 291 292 292 292 293 293 294 294 294 294 294 294 295 294 295 295 296 296 296 296 296 297 297 297 298 298 298 297 297 297
298 298 299 299 299 299 298 298 298 297 297 296 296 296 296 295 295 295 295 295 295 295 295 294 294 294 294 293 293 293 293 293 293 293 292 292 292 292 292 291 291 291 291 291 291 291 291 291 291 291 291 291 291 291 290 291 291 292 292 293 293 293 293 294 294 294 294 295 294 294 294 294 294 294 295 295 296 296 296 297 297 297 296 295 295
298 298 298 298 298 298 298 297 297 296 296 296 295 295 295 295 295 295 295 295 294 294 294 294 293 293 293 293 293 293 293 293 292 292 292 291 291 291 291 291 291 291 291 291 291 291 291 290 290 290 290 290 291 290 290 290 291 291 292 292 292 293 293 293 294 294 294 294 293 293 293 293 293 293 294 295 295 295 296 296 296 296 295 295 295
298 298 298 298 297 297 296 296 296 295 295 295 295 295 295 295 294 294 294 294 294 293 293 293 293 292 292 292 292 292 292 292 292 291 291 291 290 290 290 290 290 290 290 290 290 290 290 290 290 290 290 290 290 290 290 291 291 291 292 292 292 292 292 292 293 293 294 293 292 292 292 292 293 293 294 295 295 295 295 295 295 295 294 294 294
297 297 297 297 296 296 295 295 295 295 295 294 294 294 294 294 294 294 293 293 293 292 292 292 292 292 292 292 292 292 291 292 291 291 290 290 290 289 289 289 289 289 289 289 290 290 290 290 290 290 290 290 290 290 290 291 291 291 291 291 291 291 292 292 292 292 292 292 291 292 292 292 292 293 294 294 295 296 295 295 294 294 294 294 294
297 296 296 296 295 295 295 295 294 294 294 294 294 294 294 293 293 292 292 292 292 292 292 291 291 292 291 291 291 291 290 290 290 290 290 289 289 289 288 288 288 288 288 289 289 289 289 289 290 290 290 290 290 290 291 291 290 290 290 290 290 290 291 291 291 291 291 291 291 291 291 292 292 293 293 294 294 295 296 295 295 294 293 293 293
296 296 295 295 295 295 294 294 294 294 294 294 293 293 292 292 292 291 291 291 291 291 291 291 291 291 291 290 290 290 290 289 289 289 289 288 288 288 288 288 288 288 289 289 289 289 289 289 290 290 290 290 290 290 290 290 290 289 289 289 289 289 289 289 290 290 290 290 291 291 291 292 292 292 293 293 293 294 295 296 295 294 293 293 292
296 295 295 295 294 294 294 294 294 293 293 293 292 292 291 291 291 291 291 291 290 290 290 290 290 290 290 290 289 289 289 289 288 288 288 288 288 288 288 288 288 289 289 289 289 289 289 289 290 290 290 290 289 289 289 289 288 288 288 288 288 288 288 288 289 289 290 290 291 291 292 292 292 292 292 292 293 294 294 295 294 294 293 293 292
295 295 295 294 294 294 293 293 293 292 292 291 291 291 291 290 290 290 290 290 289 289 289 289 289 289 289 289 289 288 288 288 288 288 288 288 288 287 288 288 288 288 288 288 288 288 288 288 289 289 289 289 289 288 288 288 287 287 287 287 287 287 287 287 288 289 289 290 291 291 292 292 292 292 292 293 293 293 293 293 293 293 292 292 292
295 294 294 294 293 293 293 292 292 291 291 291 290 290 290 290 290 289 289 289 289 289 288 288 288 288 288 288 288 288 288 288 288 288 288 287 287 287 288 288 289 288 287 286 286 285 286 286 287 288 288 288 288 287 287 287 287 286 286 286 286 286 287 287 287 288 289 290 290 291 291 292 292 292 292 293 293 292 292 291 291 291 291 291 290
294 294 293 293 293 292 291 291 290 290 290 290 290 290 289 289 289 289 289 288 288 288 288 288 287 287 287 288 288 288 288 287 287 287 287 287 287 288 288 288 288 287 285 285 284 284 284 285 285 285 285 285 285 285 285 286 286 285 286 286 286 287 287 287 287 288 289 290 290 291 291 291 292 292 292 292 292 291 291 291 291 290 290 290 289
293 293 292 292 291 291 290 290 290 290 289 289 289 289 289 289 289 288 288 288 288 287 287 287 287 287 287 287 287 287 287 287 287 287 287 287 287 288 288 288 287 285 283 283 283 283 283 284 284 284 284 284 284 284 284 284 285 285 286 286 287 287 287 288 288 288 289 289 290 290 291 291 291 292 291 291 291 291 290 290 290 290 289 289 289
292 292 291 290 290 290 290 289 289 289 289 289 289 289 288 288 288 288 288 287 287 287 287 287 287 287 287 287 287 287 287 287 287 286 286 287 287 288 287 286 285 283 282 282 282 283 283 283 283 283 284 284 284 284 284 285 286 286 286 287 288 288 288 288 288 288 289 289 289 289 290 290 290 290 290 290 290 290 290 290 289 289 288 288 288
291 290 290 290 289 289 289 289 289 289 289 288 288 288 288 288 288 288 287 287 287 287 287 287 286 286 286 286 286 286 286 286 286 286 286 287 287 286 285 283 282 282 282 282 282 282 282 283 283 283 284 284 285 285 285 286 286 287 287 287 288 288 288 288 288 288 288 288 288 289 289 289 289 290 290 290 290 289 289 289 289 288 288 288 287
290 290 289 289 289 289 289 289 289 288 288 288 288 288 288 288 288 288 287 287 287 287 286 286 286 286 285 286 285 285 286 286 286 286 286 286 285 283 282 282 281 281 281 282 282 282 282 283 283 284 284 284 285 285 286 286 287 287 287 287 288 288 288 288 288 288 288 288 288 288 288 288 289 289 289 289 289 289 288 288 288 288 287 287 286
289 289 289 289 289 289 288 288 288 288 288 288 288 288 288 288 287 287 287 287 287 286 286 286 286 285 285 285 285 285 285 285 286 286 286 286 285 284 283 282 282 281 281 282 282 282 283 283 283 284 284 285 285 286 286 286 287 287 287 287 288 288 288 288 288 288 288 288 288 288 288 288 288 288 289 289 288 288 288 287 287 287 286 286 286
289 289 289 289 288 288 288 288 288 288 287 287 287 288 288 288 287 287 287 287 287 286 286 285 285 285 284 284 285 284 285 285 285 285 285 285 285 285 285 284 283 281 281 282 282 283 283 283 284 284 284 285 285 286 286 286 286 287 287 287 287 288 288 288 288 288 288 287 287 287 287 288 288 288 288 288 288 288 287 287 286 286 285 285 285
289 289 288 288 288 288 288 288 287 287 287 287 287 287 287 287 287 287 287 287 286 286 286 285 285 284 284 283 283 284 284 285 285 284 283 282 282 283 284 284 283 282 281 282 283 283 283 283 284 284 284 285 285 285 285 286 286 286 286 286 287 287 288 287 287 287 287 287 287 287 287 287 287 288 288 288 287 287 287 286 286 285 284 284 284
288 288 288 288 288 287 287 287 287 287 287 287 287 287 286 287 287 287 287 287 286 286 286 285 285 284 283 283 282 282 283 284 285 284 282 280 279 280 281 282 282 282 281 282 282 283 283 283 283 283 283 284 284 284 285 285 286 286 286 286 286 287 287 287 287 286 286 287 287 287 287 287 287 287 287 287 287 286 286 286 285 284 283 283 283
288 288 287 287 287 287 287 287 287 287 287 286 286 286 286 286 286 286 286 286 286 286 286 285 284 284 283 283 282 282 281 281 282 283 282 280 279 279 279 280 281 281 281 281 281 281 282 282 282 282 282 283 283 283 284 284 285 285 285 285 286 286 286 286 286 286 286 286 286 286 287 287 287 287 287 287 286 286 285 285 284 283 282 282 282
287 287 287 287 287 287 287 287 287 286 286 286 286 286 285 285 285 285 284 284 284 285 285 284 283 283 283 283 283 283 280 278 277 279 280 280 280 280 279 280 280 280 280 280 280 280 280 280 281 282 282 282 283 283 283 284 284 284 285 285 285 285 286 286 286 286 286 286 286 286 286 286 287 287 287 286 286 285 284 284 283 283 282 282 282
287 287 287 287 287 287 287 286 286 286 286 285 285 285 284 284 284 283 283 283 282 283 283 283 283 283 282 281 282 282 281 279 277 278 279 280 280 280 280 279 279 279 280 280 280 280 280 280 281 282 282 282 282 282 282 283 284 284 284 285 285 285 285 285 285 285 286 286 286 286 286 286 286 286 286 286 285 285 284 284 283 282 282 282 282
287 287 287 287 287 286 286 286 285 285 285 285 284 284 283 283 282 282 282 282 281 281 282 282 281 282 282 281 280 281 282 281 279 278 279 279 280 280 279 279 279 279 279 279 279 280 280 281 281 282 282 282 281 281 282 282 283 283 284 284 284 284 284 285 285 285 285 285 285 285 285 286 286 286 286 285 284 284 283 283 282 281 281 281 281
287 287 286 286 286 286 285 285 285 285 284 284 283 282 282 282 281 281 281 281 281 280 280 280 280 279 279 280 280 280 280 281 281 280 279 279 279 279 279 279 279 279 279 279 279 280 280 281 281 282 282 281 281 281 282 282 283 283 283 284 284 284 284 284 284 284 285 285 285 285 285 285 285 285 285 284 284 283 282 281 281 281 280 280 280
286 286 286 286 286 285 285 285 284 284 283 282 282 281 281 281 280 280 280 280 279 279 279 279 278 278 277 278 278 278 279 280 280 280 279 278 278 278 279 279 279 279 279 279 279 280 280 280 281 281 282 281 281 281 282 282 282 283 283 283 283 283 283 284 284 284 284 284 284 285 285 285 285 284 284 283 283 282 282 281 280 280 280 280 280
286 286 285 285 285 284 284 284 283 282 282 281 280 280 280 279 279 279 279 279 279 279 278 278 278 277 276 276 276 276 276 277 278 278 278 278 278 278 279 279 278 279 279 279 279 280 280 280 280 281 281 281 282 282 282 282 282 282 282 283 283 283 283 283 283 283 283 284 284 284 284 284 284 283 283 282 282 282 281 281 280 280 280 280 279
285 285 285 284 284 283 283 282 282 281 280 280 279 279 279 278 278 278 278 278 278 278 278 277 277 276 276 275 275 275 275 276 277 277 278 278 278 278 278 278 278 278 278 279 279 279 280 280 280 280 281 281 281 282 282 282 282 282 282 282 282 283 283 282 282 283 283 283 283 283 283 283 283 283 282 282 281 281 281 281 280 280 280 280 280
285 284 284 284 283 283 282 281 281 280 280 279 278 278 278 278 277 277 277 277 277 277 277 277 277 276 275 275 275 275 275 276 276 277 277 278 278 278 278 278 278 278 278 278 278 279 279 279 280 280 280 280 281 281 281 282 282 282 282 282 282 282 282 282 282 282 282 282 282 282 282 282 282 282 282 281 281 281 280 280 280 280 279 280 281
284 283 283 283 282 281 281 281 280 280 279 279 278 278 277 277 277 277 277 277 277 277 277 276 276 276 275 275 275 275 275 275 276 276 276 277 277 277 277 277 277 277 278 278 278 278 278 279 279 279 279 280 280 281 281 281 281 282 282 282 282 282 282 281 281 281 281 281 282 282 282 282 282 282 281 281 281 280 280 280 280 279 280 280 281
283 283 282 282 281 281 280 280 279 279 278 278 278 277 277 277 276 276 276 276 276 276 276 276 276 276 275 275 274 274 275 275 275 275 275 276 276 276 277 277 277 277 277 277 277 278 278 278 278 278 278 279 279 280 280 281 281 281 282 282 282 282 282 281 281 281 281 281 281 281 281 281 281 281 281 281 281 280 280 280 280 280 280 281 282
282 282 281 281 280 280 280 279 279 278 278 278 277 277 276 276 276 276 275 275 275 275 275 275 275 275 275 275 274 274 274 274 274 274 274 275 275 275 276 276 276 276 276 277 277 277 277 277 277 277 278 278 279 279 280 280 281 281 281 282 282 282 282 281 281 281 280 280 281 281 281 281 281 281 281 281 281 281 280 280 280 281 281 282 282
282 281 281 280 280 279 279 279 278 278 278 277 277 276 276 275 275 275 275 275 275 275 275 275 275 275 275 275 274 274 273 273 274 274 274 274 274 275 275 275 275 275 276 276 276 276 276 276 276 277 277 277 278 278 279 280 280 280 281 281 281 282 282 281 281 281 281 281 281 281 281 282 282 281 281 281 281 281 281 281 281 282 282 281 281
281 280 280 279 279 279 279 278 278 278 277 277 276 276 275 275 275 275 275 275 275 275 275 275 274 274 274 274 274 274 273 273 273 273 273 274 274 274 274 275 275 275 275 275 275 276 276 276 276 276 276 277 277 278 278 279 279 280 280 281 281 281 281 281 281 281 281 282 282 282 282 283 283 282 282 282 282 282 282 282 281 281 281 281 280
280 279 279 279 278 278 278 278 278 277 277 276 276 275 275 275 275 275 275 275 275 275 275 275 274 274 274 274 274 274 274 273 273 273 273 273 274 274 274 274 274 274 275 275 275 275 275 275 276 276 276 276 277 277 277 278 279 279 280 280 280 280 280 281 281 281 281 281 282 282 282 282 283 282 282 282 282 282 282 282 281 281 281 281 281
279 279 278 278 278 278 277 277 277 277 276 276 275 275 275 274 274 274 274 274 275 275 275 275 275 274 274 274 274 274 274 273 273 273 273 273 273 273 274 274 274 274 274 274 275 275 275 275 275 276 276 276 277 277 277 278 278 279 279 279 279 279 279 280 280 280 280 280 280 281 281 281 282 282 282 281 281 282 282 282 282 281 281 281 280
278 278 278 277 277 277 277 277 276 276 276 275 275 274 274 274 273 273 273 274 274 275 275 275 275 275 274 274 273 274 274 273 273 273 273 273 273 273 273 274 274 274 274 274 274 275 275 275 276 276 276 276 277 277 277 277 278 278 278 278 278 278 279 279 279 280 280 280 280 280 280 280 281 281 281 281 281 281 281 281 281 280 280 279 279
278 277 277 277 277 276 276 276 275 275 275 274 274 273 273 273 273 273 273 273 274 274 274 274 274 274 274 274 273 273 273 273 273 273 273 273 273 273 273 273 274 274 274 274 274 274 275 275 275 276 276 276 276 277 277 277 278 277 277 277 277 278 278 278 278 279 279 279 279 279 279 279 279 280 280 280 279 279 279 279 279 279 279 278 278
Wind_Speed
5 5 5 5 6 6 7 8 8 9 9 9 9 8 8 7 6 5 5 6 7 7 7 8 8 8 8 9 9 10 10 11 12 14 14 15 16 17 18 19 20 22 22 23 23 25 27 28 29 28 29 31 32 32 33 33 35 37 37 38 39 38 37 39 47 56 58 53 51 52 50 49 50 52 51 52 52 50 48 47 46 46 46 47 47
6 6 6 7 7 7 8 8 8 8 8 8 7 6 5 4 3 4 5 6 7 7 8 8 9 9 9 10 11 11 12 13 14 15 16 17 17 18 19 21 22 23 24 25 25 26 28 29 29 29 30 32 33 32 33 34 34 37 37 37 40 39 38 39 43 50 57 57 53 52 51 50 52 52 51 52 53 51 50 49 48 48 49 48 49
7 7 7 8 8 7 8 8 8 8 7 6 5 3 2 3 4 5 6 7 8 8 9 9 10 11 11 12 12 13 14 15 16 17 18 19 20 21 22 23 24 25 26 27 27 28 30 31 31 31 32 34 35 34 35 36 36 38 39 38 40 41 40 41 43 47 53 57 55 53 52 51 51 52 52 53 53 52 52 53 51 51 51 50 50
7 7 7 8 8 8 8 8 7 6 5 3 2 2 3 5 5 6 7 8 8 9 10 10 11 12 12 13 14 15 16 17 18 19 20 22 23 23 25 26 27 28 29 29 30 31 32 33 33 33 34 36 37 36 36 37 38 39 40 40 40 42 42 41 43 46 50 55 56 53 52 52 52 53 53 53 54 54 55 55 54 54 53 52 52
8 8 9 9 9 9 8 7 6 4 3 2 2 3 4 5 6 6 7 8 8 9 10 11 12 13 14 15 17 18 19 20 21 22 23 25 26 27 28 29 30 31 32 33 33 34 35 36 36 36 37 38 39 39 38 38 39 39 40 40 40 41 43 43 44 45 47 53 55 54 53 52 53 54 53 54 55 55 56 56 56 55 54 53 53
9 10 10 9 9 8 7 5 4 3 2 2 3 3 4 5 6 6 7 8 8 9 11 12 14 16 17 19 20 21 22 23 24 25 26 27 29 30 30 32 33 34 35 36 37 37 38 39 40 39 39 41 42 42 41 40 40 40 40 40 40 41 43 44 44 44 47 50 54 55 54 53 54 54 54 54 54 55 56 56 56 56 55 54 53
10 10 10 9 8 7 6 5 4 3 2 2 3 4 5 6 7 7 8 9 10 12 14 15 17 19 21 22 23 24 24 25 26 27 28 29 30 32 33 33 34 35 36 37 38 39 40 40 41 41 41 42 43 43 43 43 43 43 42 42 41 42 43 44 44 45 46 49 52 54 55 54 54 54 53 53 54 54 54 54 56 57 55 54 52
11 10 10 9 8 7 6 5 4 3 2 2 4 5 6 7 8 9 10 11 13 15 17 19 21 23 24 25 25 26 26 26 27 28 29 30 31 32 34 34 36 37 38 38 39 40 41 42 42 43 43 43 44 44 44 44 44 45 45 43 43 44 45 45 45 45 46 48 51 53 54 55 56 55 53 52 54 55 54 53 54 55 53 52 52
12 11 10 9 8 7 6 4 3 2 2 3 4 5 6 8 9 11 12 14 16 18 20 22 24 25 26 26 26 26 26 26 27 28 29 31 32 34 35 36 37 39 40 41 42 42 43 44 45 45 45 45 45 45 45 44 43 45 45 45 44 45 46 46 46 46 46 47 50 52 52 54 56 55 52 52 54 54 52 51 53 54 51 50 53
12 11 10 9 8 6 5 4 3 2 3 4 5 7 8 10 12 14 16 18 20 22 23 24 25 26 26 26 26 26 26 26 27 28 30 32 34 36 38 39 40 41 43 44 46 46 47 48 49 49 49 49 49 49 48 46 45 45 46 45 44 44 46 47 48 47 46 47 50 51 51 55 57 54 52 52 52 52 51 52 53 53 50 49 52
12 11 10 8 7 5 4 3 3 3 5 6 8 10 12 14 16 18 20 22 23 24 25 26 26 27 27 28 28 28 28 28 29 31 32 33 36 38 41 43 44 44 46 48 49 51 51 52 53 54 53 53 53 53 52 51 49 48 48 47 46 44 44 46 47 48 47 47 49 51 52 55 57 55 53 52 50 51 52 51 51 50 49 49 50
12 10 9 8 6 4 4 3 4 5 7 9 11 13 16 18 20 21 23 24 25 26 27 27 28 28 30 31 31 32 32 32 33 34 36 36 38 40 43 45 47 48 49 50 52 53 54 55 56 56 56 55 54 54 54 54 53 52 51 51 49 46 44 44 45 46 47 47 49 51 53 56 57 56 54 52 49 49 50 49 49 50 49 49 51
10 9 8 6 5 3 4 5 7 8 10 13 15 17 19 21 22 24 24 25 26 27 27 28 29 30 31 33 34 35 35 35 35 37 38 39 40 42 44 47 48 50 51 52 54 55 56 58 58 59 59 57 56 56 56 56 56 54 53 53 52 50 48 47 46 45 44 45 48 52 53 54 56 56 54 51 47 46 47 48 49 50 50 51 52
8 7 6 4 3 4 6 8 10 12 14 16 18 20 21 23 24 25 26 26 28 28 29 30 31 32 33 35 36 37 38 38 38 39 41 42 43 45 48 50 51 53 54 55 56 58 59 59 60 62 62 60 58 56 55 56 56 54 53 53 52 52 51 51 49 46 44 44 47 50 50 50 53 55 53 51 50 49 49 49 51 53 54 53 54
6 5 4 3 5 6 9 11 12 15 16 18 20 21 22 24 25 27 28 29 30 31 32 33 34 35 37 38 40 41 41 41 42 43 44 46 47 49 51 53 54 56 57 58 58 59 60 60 60 62 63 63 61 57 55 55 55 54 54 53 53 53 53 53 51 46 45 46 47 49 49 49 49 50 49 48 50 52 53 52 53 54 52 50 50
4 4 4 5 7 9 11 13 15 17 18 20 21 23 24 26 28 29 31 32 33 34 35 36 37 38 39 40 42 44 44 44 45 46 47 48 50 51 53 55 56 58 59 60 60 61 61 60 60 61 62 64 63 60 57 55 54 55 55 55 55 56 57 56 51 47 47 48 47 48 48 47 46 45 44 43 44 49 51 52 53 51 47 47 49
4 4 5 7 9 11 13 15 17 18 20 22 23 24 26 27 29 30 32 33 34 35 37 38 39 40 41 42 44 46 46 46 47 47 48 50 51 53 55 57 58 59 60 61 62 62 62 61 61 61 63 64 64 62 59 54 52 53 54 55 56 57 60 59 54 50 49 48 46 46 45 45 44 42 40 39 40 44 48 51 53 50 47 48 50
4 5 7 9 11 13 15 16 18 19 21 22 24 25 27 28 29 31 33 34 35 36 37 38 39 40 41 42 44 46 48 48 48 49 50 51 52 54 56 58 59 61 61 62 63 63 63 62 61 61 62 63 63 62 59 54 50 50 51 51 53 57 61 59 54 51 50 47 45 45 44 43 42 41 39 37 36 39 44 49 52 49 46 48 49
5 7 9 10 12 14 16 17 19 20 21 23 24 26 27 28 30 31 32 33 35 36 37 39 40 41 42 43 44 46 48 49 50 50 50 51 51 53 55 57 59 60 60 61 63 63 63 63 62 62 63 63 62 60 57 52 48 48 48 47 48 54 58 56 52 50 49 46 45 45 45 44 43 41 40 38 36 36 39 44 46 46 47 48 48
6 8 10 12 13 15 16 18 19 21 22 24 25 26 27 28 29 30 31 33 34 36 38 40 42 43 44 45 46 47 49 50 50 50 50 50 50 51 53 55 57 59 59 60 62 63 63 63 63 63 62 61 58 55 52 50 47 46 45 44 47 52 55 53 50 48 47 47 47 46 46 45 44 44 44 41 39 38 38 40 42 43 45 47 47
7 9 11 12 14 15 17 19 20 21 23 24 25 25 26 28 29 30 32 34 35 37 39 41 43 45 45 46 47 47 48 49 50 50 50 50 50 51 52 54 55 56 56 57 59 60 61 62 62 63 61 58 55 51 49 50 47 44 44 46 48 50 49 49 49 48 47 47 47 47 47 46 45 45 46 45 43 41 39 41 42 41 42 44 46
9 10 12 13 14 16 17 19 20 21 22 23 24 25 26 27 29 31 33 35 37 38 40 41 43 45 47 47 48 48 48 49 50 51 51 51 52 52 53 54 54 52 51 52 55 56 56 57 59 60 59 57 55 53 52 51 48 47 47 47 47 46 45 45 46 47 47 46 46 46 47 47 46 46 46 46 46 44 43 43 42 40 39 40 42
10 11 12 14 15 16 17 19 20 20 21 22 23 25 26 28 30 32 34 36 38 39 41 42 44 46 47 49 49 50 50 51 52 52 53 54 55 55 54 54 52 48 45 45 47 49 50 53 56 58 58 57 56 55 53 50 48 47 47 45 45 44 44 44 44 43 44 45 45 46 47 47 46 46 46 46 46 45 45 43 40 38 36 36 37
11 12 13 14 15 16 17 18 19 19 21 22 23 25 27 29 31 33 35 36 38 40 42 43 45 47 49 51 52 53 53 54 54 55 55 55 55 55 54 52 50 46 41 42 44 46 48 51 53 54 55 56 54 52 51 51 50 49 49 49 47 45 44 45 43 41 42 43 45 46 47 47 46 46 46 46 45 45 44 42 38 36 33 32 34
11 12 13 14 15 16 16 16 18 19 20 22 24 26 28 31 32 34 36 37 39 41 43 44 46 48 50 53 55 56 56 57 57 57 57 56 55 53 51 50 49 46 43 45 46 46 45 47 49 51 54 56 56 54 56 57 55 54 53 50 47 45 45 45 43 40 41 42 43 45 46 46 46 46 46 45 44 43 43 41 38 36 33 32 33
11 12 13 13 14 15 15 16 18 19 21 23 26 28 30 32 34 35 37 38 40 42 44 46 48 49 51 53 55 57 58 59 59 58 57 56 53 52 51 50 49 47 45 46 46 45 46 48 51 53 55 56 56 56 57 57 55 53 51 48 46 46 45 41 39 39 40 41 42 43 45 45 45 46 45 44 43 42 42 40 37 35 33 32 33
11 11 12 13 13 14 16 17 19 21 23 25 26 28 30 32 34 36 37 39 41 43 45 47 48 50 51 53 55 57 58 59 59 58 56 54 53 51 51 50 49 47 46 47 47 48 51 52 52 53 53 53 54 54 54 53 51 51 49 47 46 44 39 37 38 39 39 40 41 42 43 43 43 43 43 42 42 42 40 38 35 33 32 32 33
11 11 12 13 14 15 17 19 21 23 24 26 28 29 31 33 34 36 38 40 42 44 46 47 48 48 50 52 54 56 57 58 57 54 52 51 50 49 49 48 48 47 47 47 48 50 52 53 53 53 52 52 51 51 51 49 48 48 48 47 45 42 38 38 40 40 39 39 41 41 40 40 40 41 41 41 40 40 38 35 32 31 31 32 32
11 11 12 13 15 17 19 21 22 24 26 27 29 30 32 33 35 37 38 40 42 44 45 47 47 47 48 50 51 52 54 56 54 51 49 48 46 44 44 45 46 46 46 46 47 49 51 52 53 53 53 51 51 50 49 48 47 47 46 45 44 43 42 42 40 39 39 40 39 39 39 38 37 38 38 38 38 37 34 32 30 30 30 31 33
11 12 13 15 16 18 20 21 23 25 27 29 30 31 33 34 36 38 40 41 42 44 45 46 46 45 46 47 47 47 49 51 49 47 47 47 45 44 43 43 43 43 44 44 46 48 51 51 51 51 51 50 49 49 48 47 47 47 46 45 45 44 43 42 40 40 40 39 38 37 37 35 35 36 36 36 36 34 31 29 29 29 30 32 33
11 12 14 15 17 18 20 22 24 26 28 30 32 34 36 37 38 40 41 42 43 44 44 45 45 44 44 45 46 46 46 45 43 42 42 43 44 45 45 44 43 41 42 43 44 46 47 48 48 47 46 46 47 47 47 46 47 47 46 46 45 42 40 39 39 39 38 37 36 36 35 33 34 35 35 34 34 33 30 28 28 28 30 32 33
11 12 14 16 17 19 22 23 25 27 29 31 33 36 38 40 41 42 43 43 43 44 44 44 44 44 42 42 43 44 43 41 39 39 39 39 41 42 43 44 43 42 41 40 40 41 42 43 45 45 45 45 46 47 46 46 46 46 45 45 44 40 38 39 39 37 36 36 35 34 33 32 32 33 33 33 32 31 30 29 29 29 30 31 32
12 13 15 17 19 21 23 25 27 29 30 32 34 36 38 41 43 44 45 45 45 44 44 43 43 43 43 41 39 38 38 38 39 40 39 38 37 38 39 40 42 41 39 37 36 38 40 41 43 44 45 46 46 47 46 46 45 44 44 43 42 40 39 38 37 36 35 35 34 33 31 31 31 31 32 31 31 30 30 30 29 29 30 32 32
14 15 17 19 21 22 24 25 27 29 31 32 34 36 38 39 41 43 45 46 47 47 46 45 44 43 44 42 39 37 35 35 37 39 40 39 37 35 34 36 38 37 35 34 35 37 39 40 41 43 44 45 45 45 45 44 43 43 43 41 40 39 38 37 36 34 34 34 32 31 29 29 30 30 30 29 29 29 29 29 29 30 31 32 32
15 17 18 20 21 23 24 25 27 29 30 32 34 35 37 37 38 40 41 43 45 47 48 47 45 44 43 42 41 39 36 33 33 35 38 39 37 34 32 33 35 37 37 37 37 37 37 38 39 41 42 42 41 40 41 41 41 41 40 39 37 36 35 34 33 32 32 32 30 28 26 27 29 29 28 29 29 29 29 29 30 30 32 33 33
16 18 19 21 22 23 24 26 27 28 30 32 33 34 34 35 36 37 39 40 42 44 46 46 46 45 43 42 40 40 38 35 33 35 37 37 35 32 31 33 35 37 39 39 38 38 38 38 39 40 40 38 37 37 38 38 38 37 36 35 34 33 31 30 29 29 29 29 27 25 24 25 27 27 27 28 28 28 28 29 29 31 32 33 33
17 18 19 21 22 23 24 25 27 28 30 31 31 32 33 33 34 35 37 38 39 41 43 45 45 45 45 43 40 39 39 38 36 36 36 36 34 31 30 31 34 36 37 38 39 40 40 39 38 39 39 37 36 37 37 36 35 34 33 32 31 30 29 29 27 27 26 26 25 23 23 24 25 25 26 26 26 27 27 27 28 30 30 31 31
17 18 19 21 22 23 24 25 27 28 29 29 30 30 31 32 33 34 35 36 38 39 41 42 42 42 43 42 40 39 39 38 38 38 37 36 33 31 30 31 32 34 36 38 39 40 41 40 38 38 38 37 37 37 36 35 34 32 31 30 29 28 27 26 25 24 23 22 22 22 22 23 23 24 24 24 25 26 26 26 27 28 28 29 30
17 18 19 20 22 23 23 25 26 27 27 27 28 29 30 31 32 33 34 35 36 37 38 39 39 38 38 38 38 38 38 38 38 38 38 35 33 31 30 30 31 33 35 37 38 39 39 38 37 36 37 37 36 35 34 33 32 31 29 28 27 26 25 24 24 23 22 21 21 22 21 21 21 21 21 22 23 24 24 25 26 28 28 29 30
17 18 19 20 21 21 22 23 24 25 25 26 26 27 28 29 30 31 31 33 34 35 35 36 36 36 35 34 33 33 35 35 35 35 34 34 33 31 30 29 30 32 34 36 37 37 37 36 35 35 36 36 35 33 32 30 29 28 27 26 25 25 24 24 24 24 23 22 21 20 18 18 18 17 18 20 22 22 22 23 26 28 28 29 31
17 18 18 19 20 20 21 22 22 22 23 23 24 25 26 27 27 28 29 30 32 33 34 34 34 34 33 31 29 29 29 30 30 30 30 30 31 30 29 29 30 31 32 34 35 35 35 35 34 34 34 34 33 31 30 28 27 25 25 24 24 25 25 25 25 24 23 21 19 16 15 15 15 15 16 19 20 21 22 22 24 27 28 29 31
16 17 17 18 18 19 19 20 20 20 21 21 22 23 24 25 25 27 28 29 30 31 33 33 33 32 31 30 28 27 26 26 26 26 26 27 28 28 28 28 28 29 30 31 33 33 33 33 32 32 32 32 31 30 29 27 25 24 23 23 23 24 25 25 23 22 21 19 17 14 12 12 13 14 15 17 19 20 20 21 22 25 26 27 28
16 16 16 16 16 17 18 18 18 19 19 20 21 22 22 23 23 25 26 27 28 29 31 32 32 32 31 29 27 26 25 24 24 23 24 25 25 26 26 26 27 27 28 29 30 30 30 30 30 30 30 30 30 29 28 26 24 23 22 22 23 24 24 24 22 21 20 18 16 13 11 10 11 12 13 15 17 17 18 19 21 23 23 24 25
15 15 15 15 15 15 16 16 17 17 18 19 19 20 20 21 21 22 24 25 26 27 28 30 30 31 30 29 27 26 25 24 23 23 23 23 23 24 24 25 25 26 27 28 27 27 27 28 28 28 28 28 27 27 26 25 23 22 21 21 22 23 23 22 21 20 19 18 16 13 10 8 9 10 11 12 13 13 14 16 18 20 21 23 24
14 13 13 14 14 14 14 14 15 16 17 18 18 19 19 19 20 20 21 23 24 25 26 27 28 29 29 29 28 26 26 25 24 23 23 23 23 24 24 24 25 26 26 26 25 24 25 26 27 27 27 26 26 26 25 24 22 21 20 20 21 22 22 22 21 19 18 17 15 12 10 7 6 6 7 7 9 9 10 12 15 17 20 21 22
13 12 12 13 13 13 13 13 13 15 16 17 18 18 18 19 19 20 20 21 22 23 24 25 26 27 28 28 27 27 26 25 25 24 24 24 24 24 24 24 24 24 24 23 22 22 23 24 25 26 26 25 24 24 23 23 23 21 19 19 18 19 20 21 21 20 18 16 14 12 9 5 3 2 3 4 5 6 8 12 15 17 18 19 19
12 12 12 12 12 11 12 12 13 14 15 16 17 18 19 19 20 20 20 21 21 22 23 24 25 26 26 27 27 26 26 25 25 25 24 24 24 24 25 25 24 23 22 21 21 21 21 22 23 24 24 23 23 21 20 20 20 20 19 18 18 18 18 19 19 19 18 17 15 12 9 5 3 2 1 3 5 7 10 13 15 16 15 15 15
12 12 12 12 11 11 12 13 13 14 15 16 17 18 18 19 20 20 20 21 21 22 23 23 23 24 25 26 26 26 25 25 25 25 25 24 24 23 23 24 24 23 22 20 20 20 21 22 22 23 23 22 21 20 19 18 17 17 17 18 18 18 18 17 16 16 16 15 14 11 8 5 4 5 5 5 6 7 8 10 11 11 12 12 13
12 12 13 12 12 12 13 14 15 16 17 17 18 18 19 19 20 20 20 21 21 22 23 23 23 23 23 24 25 25 25 24 24 24 24 24 23 23 22 22 22 22 21 21 20 20 21 21 21 21 21 20 20 19 18 17 16 15 16 17 17 17 16 15 14 14 14 14 13 11 9 6 5 5 5 4 4 5 6 7 9 10 11 12 13
13 13 13 13 14 14 15 16 16 17 18 19 19 20 20 20 21 21 21 21 21 21 22 23 24 24 23 23 23 24 24 25 24 23 23 23 23 22 22 21 21 20 20 20 20 20 19 19 19 18 18 18 18 17 17 16 16 16 17 16 16 15 14 13 13 12 12 12 11 10 9 7 6 5 4 4 4 6 7 9 10 12 13 14 15
14 14 15 15 15 16 17 17 18 19 19 20 21 21 22 22 22 22 22 22 22 22 21 22 23 23 24 24 23 23 23 23 24 24 23 22 22 22 22 21 20 19 19 19 18 18 18 18 18 18 17 17 17 17 17 16 15 15 16 15 14 13 13 12 12 11 10 9 9 8 7 6 5 3 4 4 5 6 8 9 10 12 13 14 15
Wind_Direction
201 216 231 242 253 263 270 275 278 279 280 282 285 286 285 291 301 315 333 343 347 350 350 348 345 342 340 339 337 334 330 327 324 322 322 321 319 317 315 313 311 311 311 311 312 310 308 307 307 309 307 302 300 299 298 296 292 288 285 283 281 277 275 272 268 277 288 289 283 286 287 284 284 284 284 285 286 286 286 287 287 287 286 285 286
210 222 233 241 250 257 262 267 268 269 271 270 269 271 276 298 328 345 351 353 353 353 351 350 349 346 345 342 341 339 335 333 330 327 326 323 322 320 317 315 314 313 313 313 313 312 310 309 309 311 309 305 304 304 304 302 298 294 292 289 287 285 280 277 273 274 283 290 287 284 286 285 284 285 286 286 288 289 288 288 287 286 286 285 285
213 224 232 237 246 253 256 258 257 254 253 249 252 266 304 335 345 347 348 348 347 348 348 348 348 346 345 344 342 340 337 334 332 328 326 323 321 320 317 316 314 314 313 313 313 312 310 309 310 312 311 308 307 308 307 307 304 301 299 295 292 292 287 280 278 275 279 288 290 286 285 286 285 286 287 288 288 287 287 287 286 285 285 284 284
217 226 234 238 242 244 244 243 239 238 238 244 272 316 334 340 343 343 344 345 345 348 348 348 349 348 347 345 342 340 337 334 331 327 325 323 320 319 317 316 315 314 313 313 312 311 310 310 310 311 310 308 307 308 307 307 306 304 302 300 297 296 293 284 279 278 278 283 289 289 286 285 286 287 286 285 286 285 285 286 286 285 285 284 283
218 224 228 231 231 230 229 228 229 236 251 283 314 330 336 338 339 340 341 343 345 348 348 348 347 345 343 341 338 336 333 330 328 325 322 320 318 317 316 315 314 313 312 311 310 310 309 308 309 309 308 307 306 307 307 306 305 304 302 302 300 299 296 289 283 281 278 278 285 291 289 285 287 287 285 284 285 286 285 285 285 285 284 283 281
213 217 219 220 220 218 217 220 226 242 266 294 312 325 332 333 334 335 337 339 341 342 342 341 339 337 335 334 332 329 327 324 322 320 318 316 315 313 312 311 310 309 308 308 307 307 306 306 307 307 307 306 306 306 307 306 305 304 302 302 302 299 296 292 287 282 279 277 281 287 289 287 285 285 286 285 284 285 285 285 285 284 282 281 281
207 209 210 210 208 206 206 209 218 232 254 287 314 324 327 328 330 331 331 332 332 331 331 330 329 328 327 326 325 323 321 320 317 316 315 313 312 311 310 309 308 308 307 307 306 306 306 306 306 306 306 306 306 306 307 307 305 304 303 303 302 299 295 293 289 283 279 278 279 281 284 286 285 283 284 285 283 282 282 281 282 283 284 284 286
202 203 203 201 200 199 197 202 211 224 261 300 314 318 319 319 320 321 321 321 321 320 320 320 319 320 320 320 320 319 319 318 317 316 315 315 314 313 312 312 311 310 309 309 309 308 308 308 307 308 308 307 307 307 307 307 306 304 304 303 302 299 296 293 289 283 279 277 278 279 280 283 283 282 282 282 280 280 281 280 282 284 286 287 289
197 196 197 196 195 195 193 197 208 229 272 295 301 304 307 309 310 311 312 312 313 314 315 315 316 316 317 317 317 318 319 319 319 318 318 317 315 314 313 312 312 311 310 309 309 308 308 308 307 308 308 307 307 307 306 306 305 303 303 302 300 298 296 292 288 283 279 276 277 278 278 279 280 280 278 277 278 280 283 282 282 285 285 284 286
193 191 193 193 191 189 189 196 215 242 270 284 292 298 301 304 306 308 310 311 313 314 315 316 316 316 316 317 317 318 318 319 318 318 318 317 316 314 313 312 312 312 311 310 310 310 309 309 308 308 308 307 307 306 306 306 304 302 302 301 299 296 294 291 288 284 279 275 276 277 276 276 278 278 276 276 278 279 280 278 280 284 283 280 281
190 188 188 187 186 186 193 209 234 259 279 290 298 303 306 308 311 313 314 315 315 316 316 317 317 317 317 317 317 317 318 319 318 317 317 318 317 316 315 314 314 313 313 312 311 310 310 309 309 308 308 308 308 307 307 306 305 304 302 301 298 294 289 287 287 285 279 275 276 277 275 275 278 279 276 276 276 276 276 277 278 280 278 275 276
185 182 182 184 185 194 214 238 268 284 297 305 309 312 314 315 316 317 317 317 317 317 318 318 319 319 318 318 318 318 318 319 318 318 318 317 317 316 314 314 314 313 312 312 311 310 309 309 308 308 307 308 308 308 307 306 306 305 304 302 299 295 290 286 285 284 281 277 275 276 275 275 277 278 277 276 275 274 275 275 276 276 275 272 272
178 178 183 190 200 226 261 283 299 307 312 316 317 319 319 318 318 318 318 318 317 317 318 318 318 319 318 318 317 317 317 318 318 318 317 317 316 315 313 312 312 311 311 310 309 309 308 308 307 306 306 307 307 306 306 306 307 307 305 303 300 298 295 291 288 284 281 278 274 274 278 277 276 277 278 276 275 275 274 274 275 275 273 271 273
179 188 198 215 244 280 299 308 314 318 320 322 321 320 319 319 318 318 318 317 317 317 317 318 318 319 318 318 317 316 318 319 319 319 319 318 317 316 314 312 311 310 309 309 308 307 307 307 307 305 305 305 305 305 305 306 306 306 304 302 299 298 296 294 291 287 283 279 275 276 281 281 276 277 278 276 274 273 273 273 275 276 275 276 280
193 210 231 267 293 305 313 316 319 321 322 321 321 319 319 319 319 318 318 318 318 319 318 319 319 319 320 319 318 317 319 321 321 321 321 320 318 316 314 313 311 310 308 308 307 307 307 307 307 306 306 305 305 305 305 305 305 304 301 299 298 296 295 294 292 288 285 284 280 278 282 282 279 278 278 276 274 274 274 275 276 276 276 276 277
215 245 273 295 307 312 315 317 319 321 321 320 320 320 320 320 320 319 319 319 319 319 319 319 319 319 320 320 319 317 318 321 321 320 319 319 317 316 314 313 312 310 309 309 308 308 307 307 307 306 305 305 305 305 305 305 304 302 300 298 297 296 295 295 293 290 289 288 284 281 281 282 282 281 280 277 275 276 277 277 276 274 269 268 267
240 271 294 304 310 314 316 319 321 321 321 322 321 322 321 320 320 319 318 317 317 317 317 317 318 319 319 319 319 317 317 318 320 319 318 318 317 316 314 313 311 310 309 308 308 307 307 307 306 306 305 304 304 305 305 304 302 300 298 297 296 295 294 295 295 294 293 291 287 285 284 283 283 282 280 276 274 275 275 273 273 272 267 264 264
262 288 307 312 316 320 321 322 323 322 322 322 321 321 320 319 318 317 316 316 316 316 316 316 316 317 318 317 317 316 315 315 317 317 317 316 316 315 314 312 310 309 308 307 306 305 305 305 305 304 304 303 303 304 304 303 300 298 297 296 295 294 294 296 297 295 295 293 290 289 288 286 285 283 280 276 272 271 270 269 270 270 266 264 263
290 306 317 319 321 323 323 322 322 320 320 320 319 318 317 316 316 316 315 315 315 315 316 315 314 315 315 315 315 314 314 314 314 315 316 315 315 314 313 311 309 307 307 305 303 302 302 303 303 303 302 302 302 302 301 301 298 296 295 293 291 291 294 296 295 294 293 292 290 289 288 287 287 284 281 276 271 268 268 269 270 268 263 263 262
311 316 320 321 321 322 320 319 318 317 316 316 316 315 315 314 315 315 315 315 315 315 316 316 315 314 315 315 315 315 315 315 314 315 316 316 315 314 312 309 308 307 306 305 303 302 302 302 302 302 302 301 300 299 298 297 296 294 293 290 288 289 293 295 293 290 289 288 288 288 288 288 288 285 282 280 274 269 267 267 269 267 264 262 259
315 316 318 318 318 318 315 314 314 314 313 313 313 314 315 315 315 316 316 316 316 316 317 317 316 315 315 316 316 316 317 317 316 317 317 317 316 314 312 310 309 308 307 305 303 302 302 302 302 302 302 300 299 297 296 295 294 292 289 287 287 289 291 292 290 289 288 287 287 288 288 287 286 284 282 281 278 275 270 267 267 268 268 265 259
310 311 314 313 313 312 311 311 311 311 312 312 312 314 316 317 318 318 318 318 318 318 319 319 318 317 317 317 317 317 318 318 318 318 318 318 317 315 313 311 311 311 309 307 305 304 304 303 302 301 301 299 298 297 296 295 293 291 289 288 289 289 289 289 289 287 286 286 285 284 285 285 283 282 281 280 280 280 276 272 271 273 273 271 265
306 309 309 308 308 308 307 308 309 309 311 313 314 316 317 318 319 319 319 320 320 320 320 320 319 319 318 318 318 319 319 319 319 319 319 318 317 315 313 312 312 312 310 307 305 303 302 301 301 300 300 299 298 298 297 295 293 291 290 290 291 290 288 289 290 286 284 284 282 280 282 282 281 280 280 281 281 280 278 277 278 279 277 274 271
303 304 303 302 302 303 304 306 308 310 313 315 317 318 319 320 321 321 322 322 322 321 321 321 321 321 320 320 320 320 320 320 320 320 319 318 316 314 313 313 312 311 308 304 303 303 303 303 303 302 302 301 300 299 297 295 293 293 293 293 295 293 290 291 292 289 285 283 281 279 280 281 280 280 281 280 279 278 278 278 280 281 276 271 269
296 295 295 296 297 300 303 306 310 314 317 318 320 321 322 323 323 323 324 324 323 323 323 323 323 322 321 321 321 321 320 320 320 320 319 318 316 315 315 314 313 312 310 309 309 309 307 305 304 304 303 303 302 300 299 298 298 299 299 299 298 295 290 290 292 289 286 284 281 279 280 280 280 280 279 279 278 277 277 277 277 277 273 267 263
286 288 292 296 298 303 308 312 315 319 320 321 323 323 324 324 324 324 325 325 324 324 323 323 322 322 321 321 320 320 320 319 319 319 319 318 317 316 316 315 316 316 316 315 313 310 306 305 304 304 304 304 303 303 302 302 303 304 303 301 298 294 289 288 289 287 285 285 284 281 280 280 281 280 278 277 277 276 275 274 275 274 270 264 258
289 293 298 302 305 309 314 317 319 321 322 323 324 324 325 325 325 325 325 325 324 324 323 322 322 322 321 320 319 319 319 319 319 319 319 318 318 319 319 319 319 319 317 315 312 308 306 306 306 305 305 305 306 305 304 304 304 304 302 301 298 293 288 288 290 286 283 286 287 285 284 283 281 279 277 275 275 274 273 273 272 269 263 258 251
297 299 302 305 310 315 318 320 322 323 324 324 324 324 325 324 324 325 325 325 324 323 322 322 322 321 321 320 319 318 318 317 318 320 320 320 320 321 320 320 319 317 315 313 311 308 307 307 307 307 306 305 305 304 303 302 301 300 299 298 296 292 287 288 290 287 283 285 288 288 286 284 280 276 275 275 274 272 271 270 268 263 258 251 242
294 297 302 309 315 318 320 322 323 323 323 323 323 324 324 324 324 325 325 324 323 322 321 321 321 321 320 319 319 318 317 316 317 318 320 321 322 319 317 316 315 314 313 312 311 309 308 308 307 307 305 304 302 301 301 300 299 298 297 295 294 292 288 286 288 288 286 287 289 288 286 285 281 276 274 272 270 269 268 266 262 257 251 244 237
289 299 308 313 317 319 320 321 322 322 322 322 323 323 324 324 324 323 323 322 321 321 320 320 320 320 319 318 318 317 316 317 318 319 320 321 321 319 317 316 315 313 313 314 313 310 309 308 307 307 306 304 302 302 301 300 299 298 297 296 295 292 287 285 288 290 289 289 288 287 287 286 281 275 273 270 267 265 264 260 257 252 244 237 231
295 304 310 314 316 318 319 320 321 322 322 323 323 324 324 324 323 322 322 321 320 320 319 319 319 320 320 319 319 318 317 318 320 321 322 321 321 320 321 321 320 317 316 315 313 312 311 310 310 310 309 306 304 304 304 303 303 301 300 301 300 295 290 291 294 293 291 291 290 288 287 285 279 274 272 269 265 262 259 253 249 244 237 232 228
301 306 310 313 316 318 320 321 322 322 323 324 324 324 323 322 321 321 320 320 319 318 319 319 321 322 323 323 322 321 320 319 320 323 325 324 322 323 324 324 323 322 319 316 314 312 313 312 312 312 311 309 308 307 307 306 306 305 304 304 303 299 296 297 298 296 294 293 290 288 287 285 280 275 272 267 262 258 253 246 241 234 226 223 223
305 310 313 315 318 320 321 322 322 323 323 323 322 322 321 321 320 319 319 319 319 320 321 322 323 324 324 327 328 327 324 321 321 324 327 324 322 324 325 323 323 323 322 319 317 315 315 314 313 313 313 312 311 311 310 309 308 308 307 305 303 302 301 301 300 299 297 293 290 289 287 284 279 276 270 263 259 255 249 241 233 225 218 215 215
309 312 315 317 319 320 320 321 321 321 321 320 320 320 321 320 320 320 320 321 322 323 324 326 327 327 327 328 330 332 332 330 327 327 327 325 325 326 324 321 322 323 322 321 320 318 317 317 316 316 316 316 314 314 313 312 311 311 310 308 305 304 303 302 301 300 298 296 293 291 287 282 278 274 267 259 254 249 241 232 225 218 214 214 213
309 311 314 316 316 316 317 318 318 318 318 319 320 320 320 320 321 322 323 324 325 326 327 328 329 330 330 330 331 333 335 334 330 327 326 327 329 330 328 325 326 325 324 325 325 324 323 323 322 322 322 321 320 318 317 316 315 315 314 313 310 308 306 305 304 302 299 297 297 296 291 284 278 273 267 260 253 244 234 228 223 218 215 214 212
305 308 310 310 311 313 314 314 315 317 318 319 319 320 321 322 324 325 327 328 328 328 328 329 330 330 332 334 334 332 331 331 330 328 328 330 331 332 332 331 329 327 327 329 330 329 329 329 328 328 329 329 327 326 324 322 321 320 319 318 317 316 314 313 311 307 302 300 301 302 296 286 279 273 265 257 249 243 237 231 222 216 215 216 212
299 301 303 305 308 310 311 313 315 318 319 319 321 322 324 326 328 329 329 330 331 331 331 331 332 332 333 334 335 332 329 328 329 330 331 333 333 333 334 333 330 329 329 331 332 331 331 331 332 333 334 335 333 330 330 330 329 328 327 326 325 324 322 320 318 312 306 302 303 303 297 288 281 274 263 251 241 235 231 224 214 210 211 212 207
293 296 300 303 306 308 310 314 318 319 320 322 324 327 329 330 331 332 332 333 333 333 333 333 334 334 334 334 334 332 329 328 329 331 333 335 336 336 335 333 331 330 330 331 332 332 331 331 333 335 336 336 335 333 334 335 334 333 332 330 330 330 327 324 320 317 313 309 306 303 296 288 280 270 258 246 235 228 221 214 208 206 205 204 202
290 295 300 303 306 309 313 317 319 321 323 326 329 330 331 332 334 335 335 335 335 334 334 335 335 336 336 335 335 333 331 330 331 331 332 334 336 336 335 334 332 332 333 333 334 334 333 333 334 335 336 336 335 335 336 336 335 335 334 332 332 333 331 329 326 323 320 317 312 303 292 282 274 263 248 234 227 223 216 208 207 208 205 200 196
291 297 300 302 306 312 316 319 321 324 327 330 332 333 334 335 336 336 336 336 336 335 336 336 336 337 339 338 337 334 331 330 330 330 329 331 334 335 337 337 336 335 336 336 337 337 337 337 337 337 336 335 335 335 337 337 336 336 336 337 337 337 336 335 332 327 323 320 313 302 287 274 266 254 236 223 219 217 211 206 205 206 203 197 191
292 296 299 303 309 316 319 322 324 328 331 333 334 335 336 336 336 336 336 337 337 336 337 338 339 339 340 340 339 336 331 329 329 329 330 331 333 335 337 339 339 340 341 341 341 342 342 342 341 339 337 336 336 336 337 338 338 339 341 342 343 343 342 340 336 331 328 324 315 301 284 268 256 242 225 215 212 211 209 208 207 204 200 196 192
291 294 300 307 314 318 320 323 327 330 332 334 335 335 335 335 335 337 338 338 338 337 338 339 340 341 341 342 340 337 334 332 332 332 333 335 335 336 339 341 343 345 346 346 345 346 347 346 346 344 341 339 339 339 339 340 341 344 346 346 347 349 349 346 341 337 334 328 317 301 283 263 248 236 224 217 213 209 207 207 205 201 199 195 191
290 295 304 311 315 318 320 324 329 331 332 333 334 333 333 334 336 338 338 338 338 339 340 341 341 342 343 344 342 340 339 339 338 338 339 339 339 339 341 343 346 349 350 351 351 352 352 353 353 352 349 347 345 344 344 344 345 347 349 349 352 355 355 351 346 342 338 332 321 306 289 268 250 237 227 219 214 208 204 203 199 196 193 187 181
290 299 307 310 313 316 320 325 330 331 330 331 330 330 330 332 335 337 337 338 339 341 341 342 343 343 344 344 343 342 342 342 342 342 342 341 341 341 342 344 347 349 351 354 356 357 357 357 357 356 355 353 352 352 350 349 349 350 351 352 355 359 0 357 352 348 343 338 331 318 300 279 259 244 231 224 219 213 205 200 194 188 182 177 174
291 299 305 306 309 314 320 326 328 327 327 327 327 327 328 330 332 335 336 336 338 341 342 343 343 344 345 345 345 344 342 342 341 342 341 341 341 340 341 343 346 347 350 353 355 357 358 357 355 354 355 355 356 357 358 357 357 357 356 356 358 4 7 5 0 356 351 347 342 333 323 307 278 258 242 227 221 215 205 195 186 178 174 173 172
290 295 298 300 304 311 317 320 321 322 323 323 324 324 326 327 328 330 332 333 335 338 341 342 343 344 345 346 346 346 344 342 340 340 340 339 338 337 337 338 340 342 344 347 350 352 354 354 352 352 354 355 356 358 0 3 5 6 7 7 7 11 14 12 8 5 2 0 358 353 346 340 322 284 255 221 205 197 187 178 174 170 168 168 168
284 288 289 291 296 303 309 312 314 316 317 318 319 321 322 323 325 326 327 329 332 335 337 340 342 343 344 345 346 346 346 345 343 342 340 339 337 336 335 335 335 335 337 339 342 345 347 348 349 350 353 356 358 359 1 4 8 12 16 18 19 21 23 22 19 15 13 12 11 8 3 3 23 55 123 154 156 160 163 163 163 164 165 164 166
277 279 280 284 289 296 301 304 308 310 311 313 314 315 317 319 321 322 323 325 328 330 332 335 338 340 341 342 342 343 345 346 346 344 343 342 341 340 339 338 337 336 335 334 335 337 339 341 342 345 349 354 359 2 4 6 8 12 18 23 26 27 29 31 31 30 28 25 21 19 18 29 65 94 110 121 130 141 152 157 159 163 168 170 173
269 271 274 280 286 291 296 299 302 305 306 308 309 309 311 313 314 316 318 321 324 326 328 329 331 334 336 338 339 339 341 343 345 346 345 344 344 344 344 343 342 341 340 338 336 335 336 338 340 343 348 353 359 3 7 10 13 16 20 24 25 25 26 28 32 37 41 40 37 34 35 43 61 77 84 91 108 131 151 162 166 172 178 183 186
263 267 273 279 284 288 293 296 298 300 302 303 304 305 306 308 309 310 312 315 318 321 323 324 325 327 329 332 334 335 336 338 340 342 343 344 344 344 345 345 345 345 345 344 343 342 341 342 344 347 350 354 357 1 5 9 14 21 23 23 22 23 24 25 28 34 42 48 48 47 45 43 45 58 80 103 129 148 162 173 178 181 185 188 189
262 267 273 277 282 287 291 293 295 298 299 300 301 302 303 305 306 307 309 311 314 316 318 318 320 321 323 325 327 329 331 333 334 336 338 340 342 342 342 342 344 345 346 347 347 347 347 347 348 349 351 352 355 358 360 1 6 15 19 17 17 21 26 27 30 34 40 46 51 54 57 59 63 82 117 138 151 161 170 176 180 184 185 186 187